Heat Index [SAI AWOS/ASOS Display]_________FAA Disclaimer: "Not for use in aviation at this time______________" Untitled Document
Columbia County Airport
190
17:12
17/05/22
13
N/A
N/A
30.05
N/A
196
59(F), 15(C)
49(F), 9(C)
57 F
67%
OVC024
10
N/A
N/A
N/A
17:12 zulu Wind 190 at 13 Knots, Altimeter 30.05
METAR K1B1 221712Z AUTO 19013KT 10SM OVC024 15/09 A3005 A02
METAR:
FAA Disclaimer--Advisory Use ONLY, not for flight info-- 4/24/2017: Test.... New UNICOM frequency change to 123.050 mhz .... new URL for cellphones , smartphones ... http://www.saiawos2.com/1B1 --- AWOS frequency 133.525 MHz , dial in 518-828-2577, -------, NEW AWOS installed 03/03/2010 ---- ,
INFO:
Wind Direction:
Wind Speed:
Wind Gust:
Wind Variable:
Altimeter:
Dens Alt:
Elev:
Temp:
Dwpt:
Wind Chill
Rel Humidity:
Ceiling:
Visibility:
Prsnt Wea:
PCPN:
Remarks:
How to read the WebPage